sat.trackr.live / text

‹ back to catalog

KUIPER-00297

NORAD 68596 · 2026-072Z

PAYLOAD ACTIVE UNKNOWN

§ Identity

Operator
Country
US
Launch date
2026-04-04
Launch site
AFETR
Launch vehicle
Mass (kg)
RCS (m²)

External: N2YO · Heavens-Above · Gunter

§ Orbital elements

Epoch: 2026-09-20T01:04:21.906336Z

Period
97.30 min
Inclination
51.8994°
Eccentricity
0.0001375
Mean motion
14.79936690 rev/d
Perigee alt
628.6 km
Apogee alt
630.5 km
Semi-major
7,007.7 km
B*
2.7083e-4
RAAN
128.6654°
Arg perigee
109.8403°
Mean anomaly
250.2708°
Rev number
2,527

§ Raw data

KUIPER-002971 68596U 26072Z   26263.04469799  .00001844  00000+0  27083-3 0  99972 68596  51.8994 128.6654 0001375 109.8403 250.2708 14.79936690 25279

JSON: /api/v1/satellites/68596 · /tle

For live sub-satellite position, see the globe view (requires WebGL).

§ Visibility from observer

Set your observer location to see the next 7 days of passes ≥ 10°. The values pass through the URL so the page stays shareable.

No JS? Fill the form by hand. The geolocation button needs JavaScript.